Weather History for KLAF - June, 2013

Change the Weather History Date:

Wednesday, June 19, 2013

  Actual Average Record
Temperature  
Mean Temperature 70 °F 73 °F  
Max Temperature 80 °F 84 °F 98 °F (1964)
Min Temperature 60 °F 62 °F 45 °F (1965)
Degree Days  
Heating Degree Days 0 0  
Month to date heating degree days 18 22  
Since 1 June heating degree days 18 22  
Since 1 July heating degree days 5911 5672  
Cooling Degree Days 5 8  
Month to date cooling degree days 81 117  
Year to date cooling degree days 182 194  
Since 1 June cooling degree days 81 117  
Growing Degree Days 20 (Base 50)    
Moisture  
Dew Point 58 °F    
Average Humidity 69    
Maximum Humidity 90    
Minimum Humidity 48    
Precipitation  
Precipitation 0.00 in 0.13 in 1.05 in (1958)
Month to date precipitation 1.44 2.62  
Year to date precipitation 20.06 16.64  
Sea Level Pressure  
Sea Level Pressure 30.07 in    
Wind  
Wind Speed 7 mph (NE)    
Max Wind Speed 13 mph    
Max Gust Speed 15 mph    
Visibility 10 miles    
Events      
T = Trace of Precipitation, MM = Missing Value Source: NWS Daily Summary

Daily Weather History Graph

Daily Weather History Graph

Search for Another Location

Airport or City:

Trip Planner

Search our weather history database for the weather conditions in past years. The results will help you decide how hot, cold, wet, or windy it might be!

Date:

Astronomy

Jun. 19, 2013 Rise Set
Actual Time 6:17 AM EDT 9:21 PM EDT
Civil Twilight 5:44 AM EDT 9:54 PM EDT
Nautical Twilight 5:01 AM EDT 10:36 PM EDT
Astronomical Twilight 4:12 AM EDT 11:26 PM EDT
Moon 5:12 PM EDT (6/19) 3:02 AM EDT (6/19)
Length of Visible Light 16h 10m
Length of Day
15h 03m
Waxing Gibbous, 80% of the Moon is Illuminated
Jun 19
Waxing Gibbous
Jun 23
Full
Jun 30
Last Quarter
Jul 8
New
Jul 15
First Quarter

Hourly Weather History & Observations

Time (EDT) Temp. Dew Point Humidity Pressure Visibility Wind Dir Wind Speed Gust Speed Precip Events Conditions
12:54 AM 64.0 °F 57.9 °F 80% 30.00 in 10.0 mi NE 4.6 mph - N/A   Clear
1:54 AM 64.9 °F 57.9 °F 78% 30.01 in 10.0 mi ENE 8.1 mph - N/A   Partly Cloudy
2:54 AM 64.0 °F 57.9 °F 80% 30.02 in 10.0 mi NE 6.9 mph - N/A   Clear
3:54 AM 63.0 °F 57.9 °F 84% 30.02 in 10.0 mi ENE 6.9 mph - N/A   Clear
4:54 AM 62.1 °F 57.9 °F 86% 30.03 in 10.0 mi ENE 5.8 mph - N/A   Clear
5:54 AM 61.0 °F 57.0 °F 87% 30.06 in 9.0 mi ENE 6.9 mph - N/A   Clear
6:54 AM 61.0 °F 57.0 °F 87% 30.08 in 6.0 mi ENE 8.1 mph - N/A   Clear
7:54 AM 62.1 °F 57.9 °F 86% 30.09 in 6.0 mi East 10.4 mph - N/A   Clear
8:54 AM 64.9 °F 57.9 °F 78% 30.11 in 9.0 mi East 11.5 mph - N/A   Clear
9:54 AM 68.0 °F 57.9 °F 70% 30.11 in 10.0 mi ESE 9.2 mph - N/A   Clear
10:54 AM 70.0 °F 59.0 °F 68% 30.11 in 10.0 mi ENE 6.9 mph - N/A   Clear
11:54 AM 72.0 °F 57.0 °F 59% 30.12 in 10.0 mi ENE 8.1 mph - N/A   Overcast
12:54 PM 75.0 °F 57.0 °F 53% 30.11 in 10.0 mi ENE 8.1 mph - N/A   Partly Cloudy
1:54 PM 75.9 °F 57.0 °F 52% 30.09 in 10.0 mi NE 5.8 mph - N/A   Clear
2:54 PM 77.0 °F 57.9 °F 52% 30.07 in 10.0 mi Calm Calm - N/A   Partly Cloudy
3:54 PM 78.1 °F 57.9 °F 50% 30.06 in 10.0 mi Variable 5.8 mph - N/A   Clear
4:54 PM 78.1 °F 57.9 °F 50% 30.06 in 10.0 mi NNE 5.8 mph - N/A   Partly Cloudy
5:54 PM 78.1 °F 57.9 °F 50% 30.06 in 10.0 mi NNE 6.9 mph - N/A   Clear
6:54 PM 78.1 °F 57.9 °F 50% 30.06 in 10.0 mi NNE 8.1 mph - N/A   Clear
7:54 PM 77.0 °F 57.9 °F 52% 30.06 in 10.0 mi NNE 8.1 mph - N/A   Clear
8:54 PM 73.0 °F 57.0 °F 57% 30.07 in 10.0 mi NE 5.8 mph - N/A   Clear
9:54 PM 70.0 °F 57.9 °F 65% 30.07 in 10.0 mi NE 5.8 mph - N/A   Clear
10:54 PM 69.1 °F 57.9 °F 68% 30.09 in 10.0 mi ENE 6.9 mph - N/A   Clear
11:54 PM 69.1 °F 57.0 °F 65% 30.09 in 10.0 mi ENE 6.9 mph - N/A   Clear